DW0148 Weather Reports


time (UTC)temp
C
wind
direction
speed
KPH
gust
KPH
rain 1hr
cm
rain 24hr
cm
rain mn
cm
humidity
%
barometer
mb
20260904223144 31 25 0.0 0.0 0.00 0.00 0.00 75 1011.5
20260904222612 31 25 0.0 0.0 0.00 0.00 0.00 74 1011.5
20260904222111 32 26 0.0 0.0 0.00 0.00 0.00 74 1011.5
20260904221538 32 25 0.0 0.0 0.00 0.00 0.00 73 1011.5
20260904221037 32 25 0.0 0.0 0.00 0.00 0.00 74 1011.5
20260904220536 32 25 0.0 0.0 0.00 0.00 0.00 72 1011.5
20260904220034 32 25 0.0 0.0 0.00 0.00 0.00 68 1011.5
20260904215533 33 25 0.0 0.0 0.00 0.00 0.00 66 1011.5
20260904215032 33 25 0.0 0.0 0.00 0.00 0.00 63 1011.5
20260904214530 33 26 0.0 0.0 0.00 0.00 0.00 62 1011.5
20260904214029 33 25 0.0 0.0 0.00 0.00 0.00 63 1011.5
20260904213528 33 26 0.0 0.0 0.00 0.00 0.00 65 1011.5
20260904213027 33 25 0.0 0.0 0.00 0.00 0.00 64 1011.5
20260904212525 32 25 0.0 0.0 0.00 0.00 0.00 69 1011.5
20260904211953 32 26 0.0 0.0 0.00 0.00 0.00 72 1011.5
20260904211452 32 28 0.0 0.0 0.00 0.00 0.00 78 1011.5
20260904210951 32 28 0.0 0.0 0.00 0.00 0.00 75 1011.9
20260904210450 32 28 0.0 0.0 0.00 0.00 0.00 75 1011.9
20260904205949 32 29 0.0 0.0 0.00 0.00 0.00 74 1011.9
20260904205416 33 28 0.0 0.0 0.00 0.00 0.00 74 1011.9
20260904204914 33 29 0.0 0.0 0.00 0.00 0.00 74 1012.2
20260904204414 33 29 0.0 0.0 0.00 0.00 0.00 73 1012.2
20260904203841 33 29 0.0 0.0 0.00 0.00 0.00 70 1012.2
20260904203339 33 28 0.0 0.0 0.00 0.00 0.00 69 1012.2
20260904202807 33 29 0.0 0.0 0.00 0.00 0.00 71 1012.2
20260904202306 32 29 0.0 0.0 0.00 0.00 0.00 70 1012.5
20260904201805 32 29 0.0 0.0 0.00 0.00 0.00 71 1012.5
20260904201304 32 28 0.0 0.0 0.00 0.00 0.00 69 1012.5
20260904200803 33 29 0.0 0.0 0.00 0.00 0.00 66 1012.5
20260904200302 33 29 0.0 0.0 0.00 0.00 0.00 65 1012.5
20260904195801 33 29 0.0 0.0 0.00 0.00 0.00 64 1012.9
20260904195300 33 41 0.0 0.0 0.00 0.00 0.00 61 1012.9
20260904194759 33 39 0.0 0.0 0.00 0.00 0.00 60 1012.9
20260904194258 33 324 0.0 0.0 0.00 0.00 0.00 59 1012.9
20260904193756 34 320 0.0 0.0 0.00 0.00 0.00 57 1013.2
20260904193224 34 27 0.0 0.0 0.00 0.00 0.00 55 1013.2
20260904192723 34 17 0.0 0.0 0.00 0.00 0.00 57 1013.2
20260904192222 35 41 0.0 0.0 0.00 0.00 0.00 57 1013.2
20260904191721 35 148 0.0 0.0 0.00 0.00 0.00 55 1013.2
20260904191118 35 151 0.0 0.0 0.00 0.00 0.00 53 1013.5
20260904190616 35 150 0.0 0.0 0.00 0.00 0.00 52 1013.5
20260904190115 36 170 0.0 0.0 0.00 0.00 0.00 53 1013.5
20260904185512 36 159 0.0 0.0 0.00 0.00 0.00 53 1013.5
20260904185011 36 180 0.0 0.0 0.00 0.00 0.00 55 1013.9
20260904184510 36 180 0.0 0.0 0.00 0.00 0.00 57 1013.5
20260904183938 36 170 0.0 0.0 0.00 0.00 0.00 56 1013.5
20260904183437 36 179 0.0 0.0 0.00 0.00 0.00 59 1013.9
20260904182936 36 176 0.0 0.0 0.00 0.00 0.00 59 1013.9
20260904182436 35 160 0.0 0.0 0.00 0.00 0.00 58 1013.9
20260904181933 35 177 0.0 0.0 0.00 0.00 0.00 58 1013.9
20260904181433 35 159 0.0 0.0 0.00 0.00 0.00 60 1013.9
20260904180931 35 172 0.0 0.0 0.00 0.00 0.00 63 1014.2
20260904180430 35 151 0.0 0.0 0.00 0.00 0.00 61 1014.2
20260904175929 34 176 0.0 0.0 0.00 0.00 0.00 59 1014.2
20260904175428 34 177 0.0 0.0 0.00 0.00 0.00 59 1014.2
20260904174856 34 179 0.0 0.0 0.00 0.00 0.00 62 1014.2
20260904174324 34 180 0.0 0.0 0.00 0.00 0.00 59 1014.6
20260904173721 34 179 0.0 0.0 0.00 0.00 0.00 62 1014.6
20260904173047 34 152 0.0 0.0 0.00 0.00 0.00 62 1014.6
20260904172545 33 155 0.0 0.0 0.00 0.00 0.00 63 1014.6
20260904172043 33 151 0.0 0.0 0.00 0.00 0.00 67 1014.6
20260904171511 34 155 0.0 0.0 0.00 0.00 0.00 65 1014.9
20260904171010 33 176 0.0 0.0 0.00 0.00 0.00 65 1014.9
20260904170509 33 174 0.0 0.0 0.00 0.00 0.00 67 1014.9
20260904165935 33 155 0.0 0.0 0.00 0.00 0.00 65 1014.9
20260904165435 33 177 0.0 0.0 0.00 0.00 0.00 68 1014.9
20260904164933 33 176 0.0 0.0 0.00 0.00 0.00 67 1014.9
20260904164432 33 156 0.0 0.0 0.00 0.00 0.00 68 1015.2
20260904163900 33 176 0.0 0.0 0.00 0.00 0.00 66 1015.2
20260904163328 33 174 0.0 0.0 0.00 0.00 0.00 66 1015.2
20260904162827 33 176 0.0 0.0 0.00 0.00 0.00 68 1015.2
20260904162326 33 155 0.0 0.0 0.00 0.00 0.00 68 1015.2
20260904161824 32 176 0.0 0.0 0.00 0.00 0.00 69 1015.2
20260904161251 32 176 0.0 0.0 0.00 0.00 0.00 69 1015.6
20260904160750 32 177 0.0 0.0 0.00 0.00 0.00 70 1015.6
20260904160249 32 173 0.0 0.0 0.00 0.00 0.00 69 1015.6
20260904155716 32 159 0.0 0.0 0.00 0.00 0.00 71 1015.6
20260904155214 32 176 0.0 0.0 0.00 0.00 0.00 72 1015.6
20260904154712 32 163 0.0 0.0 0.00 0.00 0.00 72 1015.6
20260904154211 32 159 0.0 0.0 0.00 0.00 0.00 70 1015.6
20260904153711 32 165 0.0 0.0 0.00 0.00 0.00 71 1015.6
20260904153209 32 179 0.0 0.0 0.00 0.00 0.00 73 1015.6
20260904152708 32 172 0.0 0.0 0.00 0.00 0.00 71 1015.6
20260904152207 32 173 0.0 0.0 0.00 0.00 0.00 73 1015.6
20260904151706 31 167 0.0 0.0 0.00 0.00 0.00 74 1015.6
20260904151205 31 173 0.0 0.0 0.00 0.00 0.00 73 1015.6
20260904150704 31 173 0.0 0.0 0.00 0.00 0.00 73 1015.6
20260904150203 31 176 0.0 0.0 0.00 0.00 0.00 74 1015.6
20260904145701 31 174 0.0 0.0 0.00 0.00 0.00 77 1015.6
20260904145200 31 176 0.0 0.0 0.00 0.00 0.00 76 1015.6
20260904144658 30 177 0.0 0.0 0.00 0.00 0.00 77 1015.6
20260904144157 30 169 0.0 0.0 0.00 0.00 0.00 78 1015.6
20260904143625 30 160 0.0 0.0 0.00 0.00 0.00 80 1015.6
20260904143124 30 148 0.0 0.0 0.00 0.00 0.00 79 1015.6
20260904142621 30 148 0.0 0.0 0.00 0.00 0.00 79 1015.6
20260904142120 29 148 0.0 0.0 0.00 0.00 0.00 79 1015.2
20260904141619 29 150 0.0 0.0 0.00 0.00 0.00 81 1015.2
20260904141117 28 146 0.0 0.0 0.00 0.00 0.00 82 1015.2
20260904140616 28 146 0.0 0.0 0.00 0.00 0.00 83 1015.2
20260904140115 28 148 0.0 0.0 0.00 0.00 0.00 83 1015.2
20260904135614 27 148 0.0 0.0 0.00 0.00 0.00 85 1015.2
20260904135113 27 148 0.0 0.0 0.00 0.00 0.00 85 1015.2
20260904134612 27 149 0.0 0.0 0.00 0.00 0.00 85 1015.2
20260904134110 27 150 0.0 0.0 0.00 0.00 0.00 87 1015.2
20260904133609 27 150 0.0 0.0 0.00 0.00 0.00 86 1015.2
20260904133108 27 149 0.0 0.0 0.00 0.00 0.00 87 1015.2
20260904132504 27 146 0.0 0.0 0.00 0.00 0.00 87 1015.6
20260904132003 26 149 0.0 0.0 0.00 0.00 0.00 90 1015.6
20260904131501 26 150 0.0 0.0 0.00 0.00 0.00 93 1015.2
20260904130857 25 150 0.0 0.0 0.00 0.00 0.00 95 1015.2
20260904130356 24 149 0.0 0.0 0.00 0.00 0.00 95 1015.2
20260904125855 23 150 0.0 0.0 0.00 0.00 0.00 95 1015.2
20260904125354 23 152 0.0 0.0 0.00 0.00 0.00 95 1015.6
20260904124852 23 152 0.0 0.0 0.00 0.00 0.00 95 1015.6
20260904124319 23 153 0.0 0.0 0.00 0.00 0.00 95 1015.2
20260904123818 23 152 0.0 0.0 0.00 0.00 0.00 95 1015.2
20260904123246 22 153 0.0 0.0 0.00 0.00 0.00 95 1015.2
20260904122745 22 152 0.0 0.0 0.00 0.00 0.00 95 1015.2
20260904122244 22 153 0.0 0.0 0.00 0.00 0.00 95 1015.2
20260904121711 22 152 0.0 0.0 0.00 0.00 0.00 95 1015.2
20260904121209 22 152 0.0 0.0 0.00 0.00 0.00 95 1015.2
20260904120708 22 152 0.0 0.0 0.00 0.00 0.00 95 1015.2
20260904120136 22 153 0.0 0.0 0.00 0.00 0.00 95 1015.2
20260904115635 22 152 0.0 0.0 0.00 0.00 0.00 95 1015.2
20260904115134 22 152 0.0 0.0 0.00 0.00 0.00 95 1015.2
20260904114633 22 152 0.0 0.0 0.00 0.00 0.00 95 1015.2
20260904114133 22 152 0.0 0.0 0.00 0.00 0.00 95 1014.9
20260904113632 22 153 0.0 0.0 0.00 0.00 0.00 95 1014.9
20260904113131 22 152 0.0 0.0 0.00 0.00 0.00 95 1014.9
20260904112630 22 152 0.0 0.0 0.00 0.00 0.00 95 1014.9
20260904112057 22 152 0.0 0.0 0.00 0.00 0.00 95 1014.9
20260904111556 22 153 0.0 0.0 0.00 0.00 0.00 95 1014.6
20260904111055 22 152 0.0 0.0 0.00 0.00 0.00 95 1014.6
20260904110522 22 152 0.0 0.0 0.00 0.00 0.00 95 1014.6
20260904110021 22 152 0.0 0.0 0.00 0.00 0.00 95 1014.6
20260904105520 22 153 0.0 0.0 0.00 0.00 0.00 95 1014.2
20260904104948 22 153 0.0 0.0 0.00 0.00 0.00 95 1014.2
20260904104447 22 153 0.0 0.0 0.00 0.00 0.00 95 1014.2
20260904103945 22 153 0.0 0.0 0.00 0.00 0.00 95 1014.2
20260904103444 22 153 0.0 0.0 0.00 0.00 0.00 95 1014.2
20260904102943 22 153 0.0 0.0 0.00 0.00 0.00 95 1014.2
20260904102442 22 153 0.0 0.0 0.00 0.00 0.00 95 1014.2
20260904101941 22 153 0.0 0.0 0.00 0.00 0.00 95 1014.2
20260904101408 22 153 0.0 0.0 0.00 0.00 0.00 95 1014.2
20260904100906 22 153 0.0 0.0 0.00 0.00 0.00 95 1014.2
20260904100231 22 153 0.0 0.0 0.00 0.00 0.00 95 1014.2
20260904095659 22 153 0.0 0.0 0.00 0.00 0.00 95 1014.2
20260904095127 22 155 0.0 0.0 0.00 0.00 0.00 95 1013.9
20260904094625 22 153 0.0 0.0 0.00 0.00 0.00 95 1013.9
20260904094124 22 153 0.0 0.0 0.00 0.00 0.00 95 1013.9
20260904093622 22 153 0.0 0.0 0.00 0.00 0.00 95 1013.9
20260904093121 22 153 0.0 0.0 0.00 0.00 0.00 95 1013.9
20260904092620 22 153 0.0 0.0 0.00 0.00 0.00 95 1013.9
20260904092119 22 153 0.0 0.0 0.00 0.00 0.00 95 1013.9
20260904091618 22 153 0.0 0.0 0.00 0.00 0.00 95 1013.9
20260904091117 22 153 0.0 0.0 0.00 0.00 0.00 95 1013.9
20260904090615 22 153 0.0 0.0 0.00 0.00 0.00 95 1013.9
20260904090114 22 153 0.0 0.0 0.00 0.00 0.00 95 1013.9
20260904085613 22 153 0.0 0.0 0.00 0.00 0.00 95 1013.9
20260904085112 22 155 0.0 0.0 0.00 0.00 0.00 95 1013.9
20260904084611 22 153 0.0 0.0 0.00 0.00 0.00 95 1013.5
20260904084110 22 153 0.0 0.0 0.00 0.00 0.00 95 1013.5
20260904083608 22 155 0.0 0.0 0.00 0.00 0.00 95 1013.9
20260904083035 22 155 0.0 0.0 0.00 0.00 0.00 95 1013.9
20260904082534 23 155 0.0 0.0 0.00 0.00 0.00 95 1013.5
20260904082032 22 155 0.0 0.0 0.00 0.00 0.00 95 1013.5
20260904081530 23 155 0.0 0.0 0.00 0.00 0.00 95 1013.5
20260904081029 23 155 0.0 0.0 0.00 0.00 0.00 95 1013.5
20260904080528 23 155 0.0 0.0 0.00 0.00 0.00 95 1013.5
20260904080027 23 155 0.0 0.0 0.00 0.00 0.00 95 1013.5
20260904075526 23 155 0.0 0.0 0.00 0.00 0.00 95 1013.5
20260904075025 23 155 0.0 0.0 0.00 0.00 0.00 95 1013.5
20260904074523 23 155 0.0 0.0 0.00 0.00 0.00 95 1013.5
20260904074021 23 155 0.0 0.0 0.00 0.00 0.00 95 1013.5
20260904073518 23 155 0.0 0.0 0.00 0.00 0.00 95 1013.5
20260904073017 23 155 0.0 0.0 0.00 0.00 0.00 95 1013.5
20260904072414 23 155 0.0 0.0 0.00 0.00 0.00 95 1013.5
20260904071914 23 155 0.0 0.0 0.00 0.00 0.00 95 1013.5
20260904071413 23 155 0.0 0.0 0.00 0.00 0.00 95 1013.5
20260904070809 23 155 0.0 0.0 0.00 0.00 0.00 95 1013.5
20260904070308 23 155 0.0 0.0 0.00 0.00 0.00 95 1013.5
20260904065806 23 155 0.0 0.0 0.00 0.00 0.00 95 1013.5
20260904065306 23 155 0.0 0.0 0.00 0.00 0.00 95 1013.9
20260904064803 23 155 0.0 0.0 0.00 0.00 0.00 95 1013.9
20260904064231 23 155 0.0 0.0 0.00 0.00 0.00 95 1013.9
20260904063730 23 155 0.0 0.0 0.00 0.00 0.00 95 1013.9
20260904063228 23 155 0.0 0.0 0.00 0.00 0.00 95 1013.9
20260904062727 23 155 0.0 0.0 0.00 0.00 0.00 95 1013.9
20260904062226 23 155 0.0 0.0 0.00 0.00 0.00 95 1013.9
20260904061725 23 155 0.0 0.0 0.00 0.00 0.00 95 1013.9
20260904061225 23 155 0.0 0.0 0.00 0.00 0.00 95 1013.9
20260904060723 23 148 0.0 0.0 0.00 0.00 0.00 95 1013.9
20260904060222 23 148 0.0 0.0 0.00 0.00 0.00 95 1013.9
20260904055721 23 148 0.0 0.0 0.00 0.00 0.00 95 1013.9
20260904055220 23 148 0.0 0.0 0.00 0.00 0.00 95 1014.2
20260904054719 23 147 0.0 0.0 0.00 0.00 0.00 95 1014.2
20260904054218 23 147 0.0 0.0 0.00 0.00 0.00 95 1014.2
20260904053717 23 146 0.0 0.0 0.00 0.00 0.00 95 1013.9
20260904053216 23 147 0.0 0.0 0.00 0.00 0.00 95 1013.9
20260904052715 23 146 0.0 0.0 0.00 0.00 0.00 95 1013.9
20260904052214 23 146 0.0 0.0 0.00 0.00 0.00 95 1013.9
20260904051713 23 146 0.0 0.0 0.00 0.00 0.00 95 1014.2
20260904051139 23 147 0.0 0.0 0.00 0.00 0.00 95 1014.2
20260904050638 23 147 0.0 0.0 0.00 0.00 0.00 95 1014.2
20260904050137 23 146 0.0 0.0 0.00 0.00 0.00 95 1014.2
20260904045636 23 147 0.0 0.0 0.00 0.00 0.00 95 1014.2
20260904045135 23 146 0.0 0.0 0.00 0.00 0.00 95 1014.2
20260904044632 24 147 0.0 0.0 0.00 0.00 0.00 95 1014.2
20260904044131 24 146 0.0 0.0 0.00 0.00 0.00 95 1014.2
20260904043630 24 146 0.0 0.0 0.00 0.00 0.00 95 1014.2
20260904043128 24 146 0.0 0.0 0.00 0.00 0.00 95 1014.2
20260904042628 24 146 0.0 0.0 0.00 0.00 0.00 95 1014.2
20260904042126 24 146 0.0 0.0 0.00 0.00 0.00 95 1014.2
20260904041554 24 146 0.0 0.0 0.00 0.00 0.00 94 1014.6
20260904041054 24 146 0.0 0.0 0.00 0.00 0.00 94 1014.6
20260904040553 24 146 0.0 0.0 0.00 0.00 0.00 94 1014.2
20260904040052 24 146 0.0 0.0 0.00 0.00 0.00 94 1014.6
20260904035551 24 146 0.0 0.0 0.00 0.00 0.00 94 1014.6
20260904035048 24 146 0.0 0.0 0.00 0.00 0.00 94 1014.6
20260904034547 24 146 0.0 0.0 0.00 0.00 0.00 94 1014.6
20260904034046 24 147 0.0 0.0 0.00 0.00 0.00 93 1014.6
20260904033545 24 146 0.0 0.0 0.00 0.00 0.00 93 1014.6
20260904033012 24 146 0.0 0.0 0.00 0.00 0.00 93 1014.6
20260904032511 24 146 0.0 0.0 0.00 0.00 0.00 93 1014.9
20260904031939 24 147 0.0 0.0 0.00 0.00 0.00 93 1014.9
20260904031437 25 146 0.0 0.0 0.00 0.00 0.00 93 1014.9
20260904030935 25 146 0.0 0.0 0.00 0.00 0.00 93 1014.9
20260904030434 25 146 0.0 0.0 0.00 0.00 0.00 93 1014.9
20260904025933 25 146 0.0 0.0 0.00 0.00 0.00 93 1014.9
20260904025431 25 143 0.0 0.0 0.00 0.00 0.00 93 1014.6
20260904024931 25 143 0.0 0.0 0.00 0.00 0.00 93 1014.6
20260904024429 25 143 0.0 0.0 0.00 0.00 0.00 93 1014.6
20260904023928 25 143 0.0 0.0 0.00 0.00 0.00 92 1014.6
20260904023427 25 142 0.0 0.0 0.00 0.00 0.00 92 1014.6
20260904022853 25 143 0.0 0.0 0.00 0.00 0.00 92 1014.6
20260904022352 25 142 0.0 0.0 0.00 0.00 0.00 91 1014.6
20260904021851 25 143 0.0 0.0 0.00 0.00 0.00 91 1014.2
20260904021350 25 144 0.0 0.0 0.00 0.00 0.00 91 1014.2
20260904020849 25 143 0.0 0.0 0.00 0.00 0.00 91 1014.2
20260904020348 25 143 0.0 0.0 0.00 0.00 0.00 90 1014.2
20260904015846 25 143 0.0 0.0 0.00 0.00 0.00 90 1014.2
20260904015345 25 143 0.0 0.0 0.00 0.00 0.00 90 1014.2
20260904014843 25 142 0.0 0.0 0.00 0.00 0.00 91 1014.2
20260904014342 25 142 0.0 0.0 0.00 0.00 0.00 91 1013.9
20260904013841 25 142 0.0 0.0 0.00 0.00 0.00 91 1013.9
20260904013340 25 142 0.0 0.0 0.00 0.00 0.00 91 1013.9
20260904012839 25 142 0.0 0.0 0.00 0.00 0.00 91 1013.9
20260904012337 25 142 0.0 0.0 0.00 0.00 0.00 91 1013.5
20260904011836 25 142 0.0 0.0 0.00 0.00 0.00 91 1013.5
20260904011303 25 142 0.0 0.0 0.00 0.00 0.00 91 1013.5
20260904010802 26 142 0.0 0.0 0.00 0.00 0.00 91 1013.5
20260904010300 26 138 0.0 0.0 0.00 0.00 0.00 91 1013.5
20260904005759 26 138 0.0 0.0 0.00 0.00 0.00 91 1013.2
20260904005257 26 138 0.0 0.0 0.00 0.00 0.00 91 1013.2
20260904004756 26 138 0.0 0.0 0.00 0.00 0.00 90 1013.2
20260904004255 26 139 0.0 0.0 0.00 0.00 0.00 90 1013.2
20260904003754 26 138 0.0 0.0 0.00 0.00 0.00 90 1013.2
20260904003253 26 138 0.0 0.0 0.00 0.00 0.00 89 1013.2
20260904002751 26 138 0.0 0.0 0.00 0.00 0.00 89 1012.9
20260904002249 27 139 0.0 0.0 0.00 0.00 0.00 89 1012.9
20260904001748 27 138 0.0 0.0 0.00 0.00 0.00 89 1012.9
20260904001216 27 139 0.0 0.0 0.00 0.00 0.00 88 1012.9
20260904000715 27 138 0.0 0.0 0.00 0.00 0.00 88 1012.9
20260904000214 27 138 0.0 0.0 0.00 0.00 0.00 88 1012.9
20260903235711 27 138 0.0 0.0 0.00 0.00 0.00 87 1012.9
20260903235209 28 138 0.0 0.0 0.00 0.00 0.00 87 1012.5
20260903234637 28 138 0.0 0.0 0.00 0.00 0.00 86 1012.5
20260903234136 28 138 0.0 0.0 0.00 0.00 0.00 86 1012.5
20260903233635 28 138 0.0 0.0 0.00 0.00 0.00 85 1012.5
20260903233134 28 138 0.0 0.0 0.00 0.00 0.00 85 1012.5
20260903232633 29 138 0.0 0.0 0.00 0.00 0.00 84 1012.5
20260903232131 29 138 0.0 0.0 0.00 0.00 0.00 83 1012.5
20260903231629 29 139 0.0 0.0 0.00 0.00 0.00 82 1012.5
20260903231128 30 138 0.0 0.0 0.00 0.00 0.00 80 1012.5
20260903230627 30 138 0.0 0.0 0.00 0.00 0.00 79 1012.5
20260903230125 30 139 0.0 0.0 0.00 0.00 0.00 77 1012.5
20260903225623 30 138 0.0 0.0 0.00 0.00 0.00 76 1012.5
20260903225120 30 138 0.0 0.0 0.00 0.00 0.00 75 1012.5
20260903224620 31 138 0.0 0.0 0.00 0.00 0.00 73 1012.5
20260903224119 31 139 0.0 0.0 0.00 0.00 0.00 73 1012.5
20260903223547 31 138 0.0 0.0 0.00 0.00 0.00 72 1012.5